User: anonymous   Login
Location: Baumgarten
(49.0970°N, 12.7493°E)
Time: 22:07:16
(UTC+00:00)
Language:

Cosmos 2237 - Orbit

View from above orbital plane
View from above orbital plane
View from above satellite
View from above satellite

Ground track
Ground track

The orbit data is extracted from the following two-line orbital elements,

1 22565U 93016A   20269.83596749 +.00000168 +00000-0 +11721-3 0  9999
2 22565 070.8415 045.1967 0005187 160.0184 200.1140 14.12464856418181
Epoch (UTC): 25 September 2020 20:03:47
Eccentricity: 0.0005187
inclination: 70.8415°
perigee height: 847 km
apogee height: 855 km
right ascension of ascending node: 45.1967°
argument of perigee: 160.0184°
revolutions per day: 14.12464856
mean anomaly at epoch: 200.1140°
orbit number at epoch: 41818

The dashed part of the orbit path shows where the satellite is in the earth's shadow,  

DLR